Regional Weather Roundup
Issued by NWS Sioux Falls, SD

Home | Current Version | Previous Version | Text Only | Print | Product List | Glossary On
Versions: 1 2 3 4 5 6 7 8 9 10 11 12 13 14 15 16 17 18 19 20 21 22 23 24 25 26 27 28 29 30 31 32 33 34 35 36 37 38 39 40 41 42 43 44 45 46 47 48 49 50
000
ASUS43 KFSD 250510
RWRFSD

WEATHER ROUNDUP FOR SE SOUTH DAKOTA/SW MINNESOTA/NW IOWA
NATIONAL WEATHER SERVICE SIOUX FALLS SD
1200 AM CDT SAT MAR 25 2017

NOTE: "FAIR" INDICATES FEW OR NO CLOUDS BELOW 12,000 FEET WITH NO
SIGNIFICANT WEATHER AND OR OBSTRUCTIONS TO VISIBILITY.


SDZ038>040-050-052>070-250600-
SOUTHEAST SOUTH DAKOTA

CITY           SKY/WX    TMP DP  RH WIND       PRES   REMARKS
BROOKINGS      CLOUDY    35  32  88 E8        30.13S WCI  29
CHAMBERLAIN    CLOUDY    33  32  98 CALM      30.15F
HURON          CLOUDY    38  34  85 NE6       30.17S
MADISON        CLOUDY    34  34 100 E14       30.13S WCI  24
MITCHELL       CLOUDY    40  35  83 E8        30.15F
SIOUX FALLS    CLOUDY    37  34  89 NE15      30.13S
WINNER         FAIR      32  29  88 SE7       30.13F WCI  26
YANKTON        CLOUDY    37  34  87 NE13      30.11F
$$

MNZ071-072-080-081-089-090-097-098-250600-
SOUTHWEST MINNESOTA

CITY           SKY/WX    TMP DP  RH WIND       PRES   REMARKS
FAIRMONT       CLOUDY    39  36  89 NE10      30.13R
JACKSON        CLOUDY    36  34  93 NE12      30.12R FOG
LUVERNE        CLOUDY    36  32  87 NE9G16    30.14R
MARSHALL       CLOUDY    36  32  85 E9        30.17R
MONTEVIDEO     CLOUDY    36  34  93 E3        30.20S
PIPESTONE      CLOUDY    36  30  80 E12       30.13R
REDWOOD FALLS  CLOUDY    38  32  79 E7        30.16F
TRACY          CLOUDY    37  35  93 E9        30.16R
WINDOM         CLOUDY    36  36 100 NE8       30.13R FOG
WORTHINGTON    CLOUDY    35  34  96 NE17      30.12S FOG     WCI  25
$$

IAZ001>003-012>014-020>022-031-032-NEZ013-014-SDZ071-250600-
NORTHWEST IOWA

CITY           SKY/WX    TMP DP  RH WIND       PRES   REMARKS
CHEROKEE       LGT RAIN  39  38  97 NE14G23   30.05F
ESTHERVILLE    CLOUDY    37  37 100 NE13      30.11R
LE MARS        CLOUDY    39  37  93 NE10G20   30.07F FOG
ORANGE CITY    CLOUDY    37  37 100 NE10G17   30.06F FOG
SHELDON        CLOUDY    37  37 100 NE13      30.07F FOG
SIOUX CITY     LGT RAIN  40  39  97 NE14      30.06F
SPENCER        CLOUDY    39  37  92 NE15      30.09S
STORM LAKE     CLOUDY    39  39 100 NE25G31   30.02F FOG
$$

ABBREVIATIONS USED IN REMARKS
   TC - TEMPERATURE IN CELSIUS
  WCI - WIND CHILL INDEX
   HX - HEAT INDEX
  VSB - VISIBILITY





USA.gov is the U.S. government's official web portal to all federal, state and local government web resources and services.